Simultaneous Nadir Overpasses (SNOs) Predictions

Prediction of SNOs between AQUA and GOES-15 Satellite Orbit:

Table of predicted SNOs for the next 14.0 days since TLE Epoch: 10/4/2013
Index Date Time (AQUA) AQUA Lat,Lon GOES-15 Lat,Lon Distance(km) Time Diff (sec)
1 10/04/2013 22:41:15 -0.52,-136.36 -0.26,-135.20 131.57 80
2 10/06/2013 22:29:03 0.12,-133.40 -0.26,-135.15 198.96 80
3 10/07/2013 10:50:19 0.94,-138.56 0.23,-135.19 383.68 80
4 10/09/2013 10:38:06 0.33,-135.60 0.24,-135.12 54.28 80
5 10/11/2013 10:25:53 -0.28,-132.63 0.24,-135.04 274.35 80
6 10/11/2013 22:47:17 -0.80,-137.83 -0.21,-134.97 324.84 80
7 10/13/2013 22:35:03 -0.22,-134.85 -0.21,-134.89 4.37 80
8 10/15/2013 22:22:50 0.43,-131.89 -0.21,-134.80 331.77 80
9 10/16/2013 10:44:06 0.62,-137.06 0.18,-134.84 250.88 80




NCC Satellite Simultaneous Nadir Overpasses (SNOs) Prediction Service
